Jackson, MI

2:35 PM EDT on August 21, 2019 (GMT -0400)
Jackson County-Reynolds

Weather History for KJXN - June, 2019

Change the Weather History Date:

Tuesday, June 11, 2019

  Actual Average Record
Temperature  
Mean Temperature 62 °F 66 °F  
Max Temperature 77 °F 78 °F 92 °F (1973)
Min Temperature 47 °F 55 °F 36 °F (1972)
Degree Days  
Heating Degree Days 3 2  
Month to date heating degree days 29 33  
Since 1 June heating degree days 29 33  
Since 1 July heating degree days 6665 6635  
Cooling Degree Days 0 3  
Month to date cooling degree days 17 29  
Year to date cooling degree days 27 66  
Since 1 June cooling degree days 17 29  
Growing Degree Days 12 (Base 50)    
Moisture  
Dew Point 48 °F    
Average Humidity 67    
Maximum Humidity 100    
Minimum Humidity 33    
Precipitation  
Precipitation 0.00 in 0.11 in 0.95 in (2004)
Month to date precipitation 2.55 1.18  
Year to date precipitation 14.56 11.78  
Sea Level Pressure  
Sea Level Pressure 30.15 in    
Wind  
Wind Speed 4 mph (WSW)    
Max Wind Speed 16 mph    
Max Gust Speed 25 mph    
Visibility 10 miles    
Events      
T = Trace of Precipitation, MM = Missing Value Source: NWS Daily Summary

Daily Weather History Graph

Daily Weather History Graph

Search for Another Location

Airport or City:

Astronomy

Jun. 11, 2019 Rise Set
Actual Time 6:00 AM EDT 9:14 PM EDT
Civil Twilight 5:26 AM EDT 9:48 PM EDT
Nautical Twilight 4:42 AM EDT 10:33 PM EDT
Astronomical Twilight 3:48 AM EDT 11:27 PM EDT
Moon 3:05 PM EDT (6/11) 2:52 AM EDT (6/11)
Length of Visible Light 16h 22m
Length of Day
15h 13m
Waxing Gibbous, 66% of the Moon is Illuminated
Jun 11
Waxing Gibbous
Jun 17
Full
Jun 25
Last Quarter
Jul 2
New
Jul 9
First Quarter

Hourly Weather History & Observations

Time (EDT) Temp. Dew Point Humidity Pressure Visibility Wind Dir Wind Speed Gust Speed Precip Events Conditions
12:56 AM 51.1 °F 48.0 °F 89% 30.14 in 10.0 mi SW 4.6 mph - N/A   Clear
1:56 AM 48.9 °F 46.9 °F 93% 30.14 in 10.0 mi SW 3.5 mph - N/A   Clear
2:56 AM 48.9 °F 46.9 °F 93% 30.14 in 10.0 mi WSW 3.5 mph - N/A   Clear
3:56 AM 48.0 °F 46.9 °F 96% 30.14 in 10.0 mi Calm Calm - N/A   Clear
4:56 AM 50.0 °F 46.9 °F 89% 30.15 in 10.0 mi Calm Calm - N/A   Clear
5:56 AM 48.0 °F 46.0 °F 93% 30.17 in 10.0 mi Calm Calm - N/A   Clear
7:56 AM 55.0 °F 50.0 °F 83% 30.20 in 10.0 mi WSW 6.9 mph - N/A   Clear
8:56 AM 60.1 °F 50.0 °F 69% 30.22 in 10.0 mi WSW 6.9 mph - N/A   Clear
9:56 AM 64.0 °F 50.0 °F 60% 30.22 in 10.0 mi SW 9.2 mph - N/A   Clear
10:56 AM 68.0 °F 48.9 °F 50% 30.21 in 10.0 mi West 6.9 mph - N/A   Clear
11:56 AM 70.0 °F 48.9 °F 47% 30.20 in 10.0 mi WSW 8.1 mph - N/A   Clear
12:56 PM 73.0 °F 50.0 °F 44% 30.19 in 10.0 mi WSW 10.4 mph 19.6 mph N/A   Partly Cloudy
1:56 PM 75.0 °F 50.0 °F 41% 30.17 in 10.0 mi West 8.1 mph 17.3 mph N/A   Partly Cloudy
2:56 PM 75.9 °F 48.0 °F 37% 30.16 in 10.0 mi Variable 5.8 mph - N/A   Partly Cloudy
3:56 PM 75.9 °F 44.1 °F 32% 30.14 in 10.0 mi WNW 6.9 mph 19.6 mph N/A   Scattered Clouds
4:56 PM 75.9 °F 45.0 °F 33% 30.13 in 10.0 mi West 6.9 mph - N/A   Clear
5:56 PM 75.9 °F 44.1 °F 32% 30.12 in 10.0 mi WNW 5.8 mph - N/A   Partly Cloudy
6:56 PM 73.0 °F 46.0 °F 38% 30.12 in 10.0 mi West 5.8 mph - N/A   Clear
7:56 PM 73.9 °F 44.1 °F 34% 30.10 in 10.0 mi WNW 4.6 mph - N/A   Clear
8:56 PM 66.9 °F 50.0 °F 54% 30.10 in 10.0 mi Calm Calm - N/A   Clear
9:56 PM 61.0 °F 50.0 °F 67% 30.10 in 10.0 mi Calm Calm - N/A   Clear
10:56 PM 57.0 °F 52.0 °F 83% 30.11 in 10.0 mi Calm Calm - N/A   Clear
11:56 PM 55.9 °F 52.0 °F 87% 30.10 in 10.0 mi Calm Calm - N/A   Clear